Flag for Mozambique Weather past 2 weeks in Nampula, Mozambique

Now
81 °F

Passing clouds.


Feels Like: 81 °F
Forecast: 60 / 92 °F
Wind: 8 mph from East

Location: Nampula Airport

Current Time: Aug 20, 2014 at 11:19:27 AM

Latest Report: Aug 20, 2014 at 11:00 AM


Visibility: N/A

Pressure: 30.15 "Hg

Humidity: 48%

Dew point: 59 °F

Location of NampulaLocation

Historic Weather in Nampula — Graph

°F

Nampula temperature yesterday

Maximum temperature yesterday: 84 °F (at 4:00 AM)
Minimum temperature yesterday: 64 °F (at 6:00 AM)
Average temperature yesterday: 74 °F

Past Weeks' High & Low Weather Summary

 TemperatureHumidityPressure
High84 °F (Aug 6, 3:00 PM)100% (Aug 6, 1:00 AM)30.24 "Hg (Aug 6, 1:00 AM)
Low64 °F (Aug 6, 1:00 AM)40% (Aug 6, 6:00 PM)30.04 "Hg (Aug 11, 6:00 PM)
Average73 °F70%30.14 "Hg
* Reported Aug 5 10:00 AM — Aug 20 10:00 AM, Nampula, Weather by CustomWeather, © 2014

Note: Actual official high and low records may vary slightly from our data, if they occured in-between our weather recording intervals... More about our weather records

Advertising

Nampula weather history for previous 24 hours

 ConditionsComfort  
Time TempWeatherWind HumidityBarometerVisibility
10:00 AM
Aug 20
79 °FSunny.7 mph54%30.18 "Hg10 mi
9:00 AM73 °FSunny.6 mph69%30.18 "Hg10 mi
8:00 AM70 °FSunny.6 mph83%30.15 "Hg10 mi
7:00 AM68 °FScattered clouds.7 mph83%30.15 "HgN/A
5:00 AM66 °FPassing clouds.6 mph100%30.12 "HgN/A
3:00 AM68 °FPassing clouds.7 mph94%30.12 "HgN/A
2:00 AM68 °FPassing clouds.7 mph88%30.12 "HgN/A
1:00 AM68 °FPassing clouds.12 mph94%30.12 "HgN/A
12:00 AM66 °FClear.6 mph94%30.15 "Hg10 mi
11:00 PM
Aug 19
68 °FClear.8 mph88%30.15 "Hg10 mi
10:00 PM68 °FClear.9 mph88%30.15 "Hg10 mi
9:00 PM70 °FClear.10 mph83%30.15 "Hg10 mi
8:00 PM73 °FPassing clouds.10 mph69%30.12 "HgN/A
7:00 PM75 °FPassing clouds.9 mph61%30.12 "HgN/A
6:00 PM77 °FPassing clouds.8 mph57%30.09 "HgN/A
5:00 PM81 °FScattered clouds.6 mph48%30.07 "HgN/A
4:00 PM84 °FScattered clouds.8 mph45%30.07 "HgN/A
3:00 PM82 °FPartly sunny.8 mph45%30.07 "HgN/A
2:00 PM82 °FPartly sunny.5 mph45%30.07 "HgN/A
1:00 PM82 °FPartly sunny.7 mph40%30.12 "HgN/A
12:00 PM81 °FPartly sunny.13 mph48%30.12 "HgN/A
11:00 AM81 °FPartly sunny.15 mph48%30.15 "HgN/A
Weather by CustomWeather, © 2014

See weather overviewHow to use our weather pages